Location: La Fredeussais
(48.1780°N, 1.3980°W)
Time: 15:51:29
(UTC+00:00)

STARLINK-2695 - Visible Passes

Search period start: 28 November 2021 00:00
Search period end: 08 December 2021 00:00
Orbit: 546 x 548 km, 53.1° (Epoch: 27 November)

Date Brightness Start Highest point End Pass type
(mag) Time Alt. Az. Time Alt. Az. Time Alt. Az.
28 Nov 5.3 17:04:58 10° S 17:07:55 19° SE 17:10:48 10° E visible
28 Nov 3.8 18:42:49 10° WSW 18:46:24 65° SW 18:46:24 65° SW visible
29 Nov 5.1 16:58:08 10° S 17:01:29 24° SE 17:04:51 10° E visible
29 Nov 3.6 18:36:32 10° WSW 18:40:30 80° WNW 18:40:30 80° WNW visible
30 Nov 4.8 16:51:26 10° SSW 16:55:04 31° SE 16:58:44 10° ENE visible
30 Nov 3.6 18:30:16 10° WSW 18:34:23 70° NNW 18:34:34 69° N visible
01 Dec 4.4 16:44:51 10° SSW 16:48:42 39° SE 16:52:33 10° ENE visible
01 Dec 3.8 18:24:02 10° W 18:28:08 61° NNW 18:28:34 56° NNE visible
01 Dec 7.0 20:04:10 10° WNW 20:04:10 10° WNW 20:04:10 10° WNW visible
02 Dec 3.9 18:17:49 10° W 18:21:52 54° NNW 18:22:33 47° NNE visible
02 Dec 6.8 19:57:57 10° WNW 19:58:09 11° WNW 19:58:09 11° WNW visible
03 Dec 4.1 18:11:37 10° W 18:15:38 49° NNW 18:16:31 41° NNE visible
03 Dec 6.7 19:51:42 10° WNW 19:52:07 12° WNW 19:52:07 12° WNW visible
04 Dec 4.2 18:05:26 10° W 18:09:24 45° N 18:10:28 36° NNE visible
04 Dec 6.6 19:45:27 10° WNW 19:46:04 14° WNW 19:46:04 14° WNW visible
05 Dec 4.3 17:59:14 10° W 18:03:11 43° N 18:04:25 33° NE visible
05 Dec 6.4 19:39:11 10° WNW 19:40:01 15° WNW 19:40:01 15° WNW visible
06 Dec 4.3 17:53:02 10° WNW 17:56:59 41° N 17:58:22 30° NE visible
06 Dec 6.2 19:32:54 10° WNW 19:33:58 17° WNW 19:33:58 17° WNW visible
07 Dec 4.3 17:46:50 10° WNW 17:50:46 41° N 17:52:21 28° NE visible
07 Dec 6.0 19:26:37 10° WNW 19:27:57 20° WNW 19:27:57 20° WNW visible
